Retour au catalogue

OPS 4682 DEB

ActifPO
NORAD 38438·DEBRIS·🇺🇸 United States

Lancé Apr 3, 1965 depuis Vandenberg Space Force Base

Loading…

Prochains Passages (prochaines 24 heures)

TLE

FraisSource: Space-Track

Époque: Sep 14, 2026, 06:56 UTC

1 38438U 65027ET  26257.28907807  .00000259  00000-0  92123-3 0  9995
2 38438  90.2470   7.5856 0029593  42.5767 317.7638 12.93149022672553

Suivez OPS 4682 DEB en temps réel avec AllMySat

Download on the App Store